Weather History for Hope, BC

Change the Weather History Date:

Tuesday, March 5, 2013

  Actual Average Record
Temperature  
Mean Temperature 40 °F -  
Max Temperature 46 °F 53 °F 55 °F (2005)
Min Temperature 35 °F 36 °F 24 °F (2002)
Degree Days  
Heating Degree Days 24    
Moisture  
Dew Point 30 °F    
Average Humidity 60    
Maximum Humidity 81    
Minimum Humidity 44    
Precipitation  
Precipitation 0.00 in 0.20 in - ()
Sea Level Pressure  
Sea Level Pressure 29.95 in    
Wind  
Wind Speed 8 mph ()    
Max Wind Speed 16 mph    
Max Gust Speed 22 mph    
Visibility 9.0 miles    
Events      
Averages and records for this station are not official NWS values.
T = Trace of Precipitation, MM = Missing Value Source: Averaged Metar Reports

Daily Weather History Graph

Daily Weather History Graph

Search for Another Location

Airport:

Trip Planner

Search our weather history database for the weather conditions in past years. The results will help you decide how hot, cold, wet, or windy it might be!

Date:

Astronomy

Mar. 05, 2013 Rise Set
Actual Time 6:39 AM PST 5:55 PM PST
Civil Twilight 6:07 AM PST 6:27 PM PST
Nautical Twilight 5:30 AM PST 7:04 PM PST
Astronomical Twilight 4:53 AM PST 7:42 PM PST
Moon 2:21 AM PST (3/5) 11:16 AM PST (3/5)
Length of Visible Light 12h 20m
Length of Day
11h 16m
Last Quarter, 39% of the Moon is Illuminated
Mar 5
Last Quarter
Mar 11
New
Mar 19
First Quarter
Mar 27
Full
Apr 2
Last Quarter

Hourly Weather History & Observations

Time (PST) Temp. Windchill Dew Point Humidity Pressure Visibility Wind Dir Wind Speed Gust Speed Precip Events Conditions
12:00 AM 37.4 °F 30.8 °F 30.2 °F 75% 30.08 in 9.0 mi East 9.2 mph - N/A   Clear
1:00 AM 38 °F - 30 °F 65% 30.08 in - North 5.8 mph - -  
1:00 AM 37.4 °F 31.4 °F 30.2 °F 75% 30.08 in 9.0 mi East 8.1 mph - N/A   Clear
2:00 AM 37.4 °F 32.1 °F 30.2 °F 75% 30.07 in 9.0 mi ENE 6.9 mph - N/A   Partly Cloudy
3:00 AM 35.6 °F 29.9 °F 30.2 °F 81% 30.06 in 9.0 mi ENE 6.9 mph - N/A   Mostly Cloudy
4:00 AM 37 °F - 29 °F 65% 30.04 in - Calm Calm - -  
4:00 AM 37.4 °F 33.8 °F 30.2 °F 75% 30.04 in 9.0 mi ENE 4.6 mph - N/A   Overcast
5:00 AM 37.4 °F 32.1 °F 28.4 °F 70% 30.03 in 9.0 mi East 6.9 mph - N/A   Overcast
6:00 AM 37.4 °F 33.8 °F 28.4 °F 70% 30.02 in 9.0 mi East 4.6 mph - N/A   Mostly Cloudy
7:00 AM 40 °F - 27 °F 49% 30.01 in - North 6.9 mph - -  
7:00 AM 39.2 °F 33.0 °F 26.6 °F 61% 30.01 in 9.0 mi SE 9.2 mph - N/A   Overcast
8:00 AM 41.0 °F 34.3 °F 26.6 °F 57% 30.00 in 9.0 mi SE 11.5 mph - N/A   Overcast
9:00 AM 42.8 °F 37.0 °F 26.6 °F 53% 30.00 in 9.0 mi SSE 10.4 mph - N/A   Overcast
10:00 AM 43 °F - 28 °F 44% 29.99 in - Calm Calm - -  
10:00 AM 42.8 °F 37.0 °F 28.4 °F 57% 29.99 in 9.0 mi SE 10.4 mph 17.3 mph N/A   Overcast
11:00 AM 44.6 °F 38.4 °F 26.6 °F 49% 29.97 in 9.0 mi SSE 12.7 mph 19.6 mph N/A   Overcast
12:00 PM 44.6 °F 40.2 °F 30.2 °F 57% 29.95 in 9.0 mi Variable 8.1 mph 18.4 mph N/A   Overcast
1:00 PM 44 °F - 32 °F 52% 29.93 in - North 12.7 mph - -  
1:00 PM 44.6 °F 37.8 °F 32.0 °F 61% 29.93 in 9.0 mi ESE 15.0 mph 21.9 mph N/A   Overcast
2:00 PM 44.6 °F 38.4 °F 32.0 °F 61% 29.91 in 9.0 mi ESE 12.7 mph 19.6 mph N/A   Overcast
3:00 PM 46.4 °F 40.7 °F 32.0 °F 57% 29.88 in 9.0 mi ESE 12.7 mph 18.4 mph N/A   Mostly Cloudy
4:00 PM 46 °F - 32 °F 46% 29.85 in - Calm Calm - -  
4:00 PM 46.4 °F 39.8 °F 32.0 °F 57% 29.85 in 9.0 mi ESE 16.1 mph - N/A   Overcast
5:00 PM 46.4 °F 41.1 °F 32.0 °F 57% 29.84 in 9.0 mi ESE 11.5 mph 18.4 mph N/A   Overcast
6:00 PM 44.6 °F 39.7 °F 32.0 °F 61% 29.83 in 9.0 mi ESE 9.2 mph - N/A   Overcast
7:00 PM 46 °F - 31 °F 44% 29.83 in - North 9.2 mph - -  
7:00 PM 46.4 °F 41.9 °F 30.2 °F 53% 29.84 in 9.0 mi SE 9.2 mph - N/A   Overcast
8:00 PM 44.6 °F 42.2 °F 32.0 °F 61% 29.83 in 9.0 mi ENE 4.6 mph - N/A   Overcast
9:00 PM 42.8 °F 40.1 °F 33.8 °F 70% 29.83 in 9.0 mi ENE 4.6 mph - N/A   Overcast
10:00 PM 44 °F - 33 °F 54% 29.83 in - Calm Calm - -  
10:00 PM 44.6 °F 42.2 °F 32.0 °F 61% 29.84 in 9.0 mi East 4.6 mph - N/A   Overcast
11:00 PM 44.6 °F 39.7 °F 32.0 °F 61% 29.83 in 9.0 mi SE 9.2 mph 17.3 mph N/A   Overcast